EW7186 Weather Reports


Display with metric or nautical units.
time (UTC)temp
F
wind
direction
speed
MPH
gust
MPH
rain 1hr
in
rain 24hr
in
rain mn
in
humidity
%
barometer
mb
20260505010053 68 0 0.0 0.0 0.00 0.00 0.00 48 1014.9
20260505004558 69 0 0.0 0.0 0.00 0.00 0.00 47 1014.7
20260505003054 70 0 0.0 0.0 0.00 0.00 0.00 45 1014.6
20260505001555 71 0 0.0 0.0 0.00 0.00 0.00 44 1014.5
20260505000107 72 0 0.0 0.0 0.00 0.00 0.00 42 1014.2
20260504234552 73 0 0.0 2.0 0.00 0.00 0.00 40 1014.1
20260504233054 74 0 0.0 4.0 0.00 0.00 0.00 39 1014.0
20260504231554 75 0 0.0 0.0 0.00 0.00 0.00 37 1013.9
20260504230104 76 0 0.0 5.0 0.00 0.00 0.00 35 1014.1
20260504224552 76 0 0.0 4.0 0.00 0.00 0.00 35 1014.2
20260504223051 77 230 0.0 3.0 0.00 0.00 0.00 34 1014.3
20260504221600 78 0 1.0 4.0 0.00 0.00 0.00 32 1014.3
20260504220055 78 220 0.0 4.0 0.00 0.00 0.00 32 1014.2
20260504214548 78 248 0.0 5.0 0.00 0.00 0.00 31 1014.2
20260504213053 78 217 1.0 4.0 0.00 0.00 0.00 29 1014.1
20260504211553 78 221 1.0 6.0 0.00 0.00 0.00 27 1014.1
20260504210054 78 0 0.0 4.0 0.00 0.00 0.00 30 1014.1
20260504204549 78 0 0.0 5.0 0.00 0.00 0.00 32 1014.0
20260504203101 78 0 0.0 4.0 0.00 0.00 0.00 29 1014.2
20260504201552 78 0 0.0 4.0 0.00 0.00 0.00 29 1014.3
20260504200054 77 0 0.0 0.0 0.00 0.00 0.00 31 1014.3
20260504194552 77 0 0.0 3.0 0.00 0.00 0.00 31 1014.6
20260504193055 77 0 0.0 6.0 0.00 0.00 0.00 29 1015.0
20260504191602 76 0 0.0 5.0 0.00 0.00 0.00 32 1015.3
20260504190112 75 0 0.0 4.0 0.00 0.00 0.00 32 1015.4
20260504184551 75 0 0.0 4.0 0.00 0.00 0.00 31 1015.6
20260504183105 74 0 0.0 2.0 0.00 0.00 0.00 31 1015.8
20260504181602 75 0 1.0 6.0 0.00 0.00 0.00 31 1016.1
20260504180059 74 0 0.0 5.0 0.00 0.00 0.00 34 1016.0
20260504174557 75 0 0.0 6.0 0.00 0.00 0.00 36 1016.2
20260504173057 74 0 1.0 5.0 0.00 0.00 0.00 32 1016.4
20260504171553 74 345 1.0 5.0 0.00 0.00 0.00 32 1016.5
20260504140106 66 231 1.0 5.0 0.00 0.00 0.00 49 1017.4
20260504081551 52 0 0.0 0.0 0.00 0.00 0.00 84 1016.7
20260504050105 52 0 0.0 0.0 0.00 0.00 0.00 85 1017.4
20260504044600 52 0 0.0 0.0 0.00 0.00 0.00 85 1017.3
20260504043055 53 0 0.0 0.0 0.00 0.00 0.00 84 1017.4
20260504041555 53 0 0.0 0.0 0.00 0.00 0.00 83 1017.3
20260504040057 53 0 0.0 0.0 0.00 0.00 0.00 86 1017.4
20260504034557 53 0 0.0 0.0 0.00 0.01 0.00 85 1017.3
20260504033051 54 0 0.0 0.0 0.00 0.01 0.00 85 1017.2
20260504031553 54 0 0.0 0.0 0.00 0.01 0.00 83 1017.3
20260504030056 55 0 0.0 2.0 0.00 0.01 0.00 82 1017.3
20260504024608 56 0 0.0 0.0 0.00 0.01 0.00 82 1017.3
20260504023053 56 0 0.0 0.0 0.00 0.01 0.00 82 1017.2
20260504021554 56 0 0.0 0.0 0.00 0.01 0.00 82 1017.1
20260504020051 57 0 0.0 0.0 0.00 0.01 0.00 80 1017.0
20260504014601 58 0 0.0 0.0 0.00 0.01 0.00 78 1016.9
20260504013056 59 0 0.0 0.0 0.00 0.01 0.00 74 1016.8
20260504011550 60 0 0.0 0.0 0.00 0.01 0.00 69 1016.7